| time (UTC) | temp F | wind direction | speed MPH | gust MPH | rain 1hr in | rain 24hr in | rain mn in | humidity % | barometer mb |
| 20260505022217 | 51 | 28 | 1.0 | 4.0 | 0.00 | 0.00 | 0.00 | 63 | 1007.7 |
| 20260505021714 | 51 | 45 | 2.0 | 8.0 | 0.00 | 0.00 | 0.00 | 62 | 1007.9 |
| 20260505021211 | 52 | 90 | 2.0 | 6.0 | 0.00 | 0.00 | 0.00 | 61 | 1007.9 |
| 20260505020707 | 52 | 73 | 0.0 | 7.0 | 0.00 | 0.00 | 0.00 | 60 | 1007.6 |
| 20260505020202 | 53 | 103 | 4.0 | 5.0 | 0.00 | 0.00 | 0.00 | 59 | 1007.6 |
| 20260505015700 | 53 | 82 | 2.0 | 4.0 | 0.00 | 0.00 | 0.00 | 58 | 1007.5 |
| 20260505015156 | 53 | 75 | 4.0 | 7.0 | 0.00 | 0.00 | 0.00 | 59 | 1007.5 |
| 20260505014654 | 54 | 88 | 5.0 | 5.0 | 0.00 | 0.00 | 0.00 | 58 | 1007.6 |
| 20260505014150 | 54 | 94 | 5.0 | 8.0 | 0.00 | 0.00 | 0.00 | 61 | 1007.6 |
| 20260505013648 | 55 | 88 | 4.0 | 5.0 | 0.00 | 0.00 | 0.00 | 56 | 1007.6 |
| 20260505013144 | 56 | 7 | 1.0 | 4.0 | 0.00 | 0.00 | 0.00 | 56 | 1007.6 |
| 20260505012643 | 57 | 23 | 2.0 | 4.0 | 0.00 | 0.00 | 0.00 | 56 | 1007.5 |
| 20260505012140 | 58 | 34 | 2.0 | 3.0 | 0.00 | 0.00 | 0.00 | 54 | 1007.6 |
| 20260505011635 | 57 | 60 | 1.0 | 5.0 | 0.00 | 0.00 | 0.00 | 55 | 1007.6 |
| 20260505011133 | 57 | 102 | 5.0 | 6.0 | 0.00 | 0.00 | 0.00 | 51 | 1007.6 |
| 20260505010628 | 58 | 111 | 4.0 | 6.0 | 0.00 | 0.00 | 0.00 | 52 | 1007.6 |
| 20260505010125 | 59 | 120 | 4.0 | 7.0 | 0.00 | 0.00 | 0.00 | 49 | 1007.7 |
| 20260505005621 | 58 | 132 | 5.0 | 7.0 | 0.00 | 0.00 | 0.00 | 52 | 1008.0 |
| 20260505005118 | 58 | 155 | 5.0 | 9.0 | 0.00 | 0.00 | 0.00 | 54 | 1007.9 |
| 20260505004615 | 57 | 131 | 5.0 | 11.0 | 0.00 | 0.00 | 0.00 | 56 | 1007.7 |
| 20260505004112 | 56 | 148 | 8.0 | 13.0 | 0.00 | 0.00 | 0.00 | 58 | 1008.0 |
| 20260505003609 | 57 | 153 | 7.0 | 9.0 | 0.00 | 0.00 | 0.00 | 56 | 1007.7 |
| 20260505003106 | 56 | 160 | 0.0 | 6.0 | 0.02 | 0.00 | 0.00 | 60 | 1007.9 |
| 20260505002601 | 54 | 145 | 4.0 | 4.0 | 0.02 | 0.00 | 0.00 | 62 | 1007.9 |
| 20260505002055 | 55 | 238 | 3.0 | 14.0 | 0.00 | 0.00 | 0.00 | 61 | 1008.2 |
| 20260505001552 | 56 | 231 | 12.0 | 17.0 | 0.00 | 0.00 | 0.00 | 54 | 1008.0 |
| 20260505001049 | 56 | 273 | 3.0 | 15.0 | 0.00 | 0.00 | 0.00 | 54 | 1008.1 |
| 20260505000547 | 56 | 302 | 6.0 | 17.0 | 0.00 | 0.00 | 0.00 | 52 | 1008.0 |
| 20260505000044 | 59 | 330 | 2.0 | 5.0 | 0.00 | 0.00 | 0.00 | 46 | 1007.9 |
| 20260504235540 | 60 | 334 | 2.0 | 5.0 | 0.00 | 0.00 | 0.00 | 47 | 1007.6 |
| 20260504235038 | 60 | 313 | 3.0 | 12.0 | 0.00 | 0.00 | 0.00 | 44 | 1007.5 |
| 20260504234534 | 60 | 276 | 1.0 | 9.0 | 0.00 | 0.00 | 0.00 | 48 | 1007.3 |
| 20260504234031 | 60 | 311 | 0.0 | 5.0 | 0.00 | 0.00 | 0.00 | 45 | 1007.4 |
| 20260504233526 | 61 | 251 | 1.0 | 3.0 | 0.00 | 0.00 | 0.00 | 43 | 1007.5 |
| 20260504233024 | 62 | 355 | 2.0 | 5.0 | 0.00 | 0.00 | 0.00 | 43 | 1007.3 |
| 20260504232521 | 64 | 4 | 6.0 | 9.0 | 0.00 | 0.00 | 0.00 | 43 | 1007.5 |
| 20260504232019 | 64 | 5 | 5.0 | 10.0 | 0.00 | 0.00 | 0.00 | 43 | 1007.4 |
| 20260504231515 | 63 | 347 | 5.0 | 13.0 | 0.00 | 0.00 | 0.00 | 43 | 1007.4 |
| 20260504231011 | 62 | 0 | 13.0 | 19.0 | 0.00 | 0.00 | 0.00 | 44 | 1007.4 |
| 20260504230508 | 62 | 358 | 16.0 | 18.0 | 0.00 | 0.00 | 0.00 | 43 | 1007.4 |
| 20260504230007 | 62 | 16 | 7.0 | 17.0 | 0.00 | 0.00 | 0.00 | 44 | 1007.4 |
| 20260504225503 | 62 | 18 | 7.0 | 18.0 | 0.00 | 0.00 | 0.00 | 44 | 1007.5 |
| 20260504225000 | 62 | 352 | 9.0 | 12.0 | 0.00 | 0.00 | 0.00 | 46 | 1007.5 |
| 20260504224456 | 62 | 297 | 2.0 | 7.0 | 0.00 | 0.00 | 0.00 | 44 | 1007.5 |
| 20260504223953 | 62 | 341 | 4.0 | 13.0 | 0.00 | 0.00 | 0.00 | 42 | 1007.5 |
| 20260504223450 | 63 | 320 | 6.0 | 17.0 | 0.00 | 0.00 | 0.00 | 40 | 1007.3 |
| 20260504222945 | 63 | 328 | 11.0 | 17.0 | 0.00 | 0.00 | 0.00 | 39 | 1007.3 |
| 20260504222443 | 66 | 277 | 11.0 | 14.0 | 0.00 | 0.00 | 0.00 | 39 | 1007.1 |
| 20260504221941 | 66 | 293 | 20.0 | 20.0 | 0.00 | 0.00 | 0.00 | 37 | 1007.3 |
| 20260504221438 | 68 | 287 | 3.0 | 6.0 | 0.00 | 0.00 | 0.00 | 36 | 1007.1 |
| 20260504220934 | 68 | 273 | 3.0 | 7.0 | 0.00 | 0.00 | 0.00 | 37 | 1007.0 |
| 20260504220431 | 67 | 32 | 3.0 | 6.0 | 0.00 | 0.00 | 0.00 | 35 | 1007.1 |
| 20260504215928 | 66 | 282 | 7.0 | 12.0 | 0.00 | 0.00 | 0.00 | 37 | 1007.4 |
| 20260504215425 | 67 | 329 | 3.0 | 6.0 | 0.00 | 0.00 | 0.00 | 38 | 1007.5 |
| 20260504214921 | 67 | 353 | 4.0 | 6.0 | 0.00 | 0.00 | 0.00 | 40 | 1007.5 |
| 20260504214418 | 66 | 283 | 4.0 | 15.0 | 0.00 | 0.00 | 0.00 | 36 | 1007.6 |
| 20260504213915 | 67 | 265 | 2.0 | 7.0 | 0.00 | 0.00 | 0.00 | 39 | 1007.7 |
| 20260504213410 | 67 | 298 | 11.0 | 12.0 | 0.00 | 0.00 | 0.00 | 35 | 1007.7 |
| 20260504212909 | 66 | 313 | 10.0 | 15.0 | 0.00 | 0.00 | 0.00 | 37 | 1007.6 |
| 20260504212404 | 68 | 350 | 3.0 | 9.0 | 0.00 | 0.00 | 0.00 | 37 | 1007.6 |
| 20260504211902 | 68 | 246 | 10.0 | 11.0 | 0.00 | 0.00 | 0.00 | 38 | 1007.9 |
| 20260504211358 | 65 | 291 | 4.0 | 12.0 | 0.00 | 0.00 | 0.00 | 38 | 1007.7 |
| 20260504210855 | 65 | 299 | 4.0 | 12.0 | 0.00 | 0.00 | 0.00 | 35 | 1007.9 |
| 20260504210352 | 66 | 266 | 7.0 | 12.0 | 0.00 | 0.00 | 0.00 | 37 | 1008.1 |
| 20260504205849 | 67 | 275 | 4.0 | 13.0 | 0.00 | 0.00 | 0.00 | 38 | 1007.9 |
| 20260504205347 | 67 | 295 | 4.0 | 17.0 | 0.00 | 0.00 | 0.00 | 38 | 1008.1 |
| 20260504204845 | 67 | 282 | 8.0 | 12.0 | 0.00 | 0.00 | 0.00 | 39 | 1008.0 |
| 20260504204343 | 66 | 268 | 9.0 | 18.0 | 0.00 | 0.00 | 0.00 | 37 | 1008.0 |
| 20260504203842 | 67 | 209 | 8.0 | 15.0 | 0.00 | 0.00 | 0.00 | 39 | 1008.0 |
| 20260504203339 | 66 | 334 | 7.0 | 9.0 | 0.00 | 0.00 | 0.00 | 38 | 1008.1 |
| 20260504202834 | 66 | 270 | 6.0 | 9.0 | 0.00 | 0.00 | 0.00 | 38 | 1008.2 |
| 20260504202332 | 66 | 270 | 5.0 | 10.0 | 0.00 | 0.00 | 0.00 | 40 | 1008.2 |
| 20260504201828 | 64 | 308 | 9.0 | 13.0 | 0.00 | 0.00 | 0.00 | 38 | 1008.2 |
| 20260504201326 | 66 | 287 | 0.0 | 7.0 | 0.00 | 0.00 | 0.00 | 39 | 1008.2 |
| 20260504200823 | 66 | 261 | 9.0 | 12.0 | 0.00 | 0.00 | 0.00 | 40 | 1008.4 |
| 20260504200320 | 66 | 310 | 0.0 | 10.0 | 0.00 | 0.00 | 0.00 | 38 | 1008.4 |
| 20260504195816 | 67 | 303 | 2.0 | 11.0 | 0.00 | 0.00 | 0.00 | 41 | 1008.4 |
| 20260504195312 | 65 | 228 | 6.0 | 9.0 | 0.00 | 0.00 | 0.00 | 39 | 1008.4 |
| 20260504194809 | 66 | 274 | 7.0 | 13.0 | 0.00 | 0.00 | 0.00 | 39 | 1008.6 |
| 20260504194305 | 65 | 6 | 5.0 | 11.0 | 0.00 | 0.00 | 0.00 | 37 | 1008.4 |
| 20260504193801 | 64 | 276 | 4.0 | 5.0 | 0.00 | 0.00 | 0.00 | 43 | 1008.6 |
| 20260504193259 | 63 | 270 | 2.0 | 7.0 | 0.00 | 0.00 | 0.00 | 40 | 1008.6 |
| 20260504192757 | 64 | 270 | 2.0 | 8.0 | 0.00 | 0.00 | 0.00 | 40 | 1008.6 |
| 20260504192254 | 66 | 270 | 3.0 | 9.0 | 0.00 | 0.00 | 0.00 | 37 | 1008.5 |
| 20260504191753 | 65 | 268 | 5.0 | 8.0 | 0.00 | 0.00 | 0.00 | 39 | 1008.7 |
| 20260504191250 | 67 | 346 | 2.0 | 9.0 | 0.00 | 0.00 | 0.00 | 40 | 1008.7 |
| 20260504190745 | 64 | 207 | 3.0 | 8.0 | 0.00 | 0.00 | 0.00 | 36 | 1008.6 |
| 20260504190242 | 64 | 275 | 4.0 | 9.0 | 0.00 | 0.00 | 0.00 | 36 | 1008.8 |
| 20260504185738 | 64 | 331 | 5.0 | 8.0 | 0.00 | 0.00 | 0.00 | 37 | 1009.0 |
| 20260504185235 | 63 | 344 | 3.0 | 5.0 | 0.00 | 0.00 | 0.00 | 39 | 1009.0 |
| 20260504184731 | 64 | 258 | 6.0 | 11.0 | 0.00 | 0.00 | 0.00 | 40 | 1009.0 |
| 20260504184227 | 65 | 278 | 7.0 | 11.0 | 0.00 | 0.00 | 0.00 | 41 | 1009.0 |
| 20260504183723 | 64 | 23 | 4.0 | 7.0 | 0.00 | 0.00 | 0.00 | 43 | 1009.0 |
| 20260504183220 | 63 | 275 | 9.0 | 9.0 | 0.00 | 0.00 | 0.00 | 41 | 1009.1 |
| 20260504182719 | 63 | 313 | 0.0 | 7.0 | 0.00 | 0.00 | 0.00 | 43 | 1009.2 |
| 20260504182215 | 62 | 281 | 3.0 | 6.0 | 0.00 | 0.00 | 0.00 | 43 | 1009.2 |
| 20260504181713 | 62 | 344 | 5.0 | 8.0 | 0.00 | 0.00 | 0.00 | 42 | 1009.3 |
| 20260504181210 | 62 | 5 | 1.0 | 3.0 | 0.00 | 0.00 | 0.00 | 41 | 1009.1 |
| 20260504180709 | 62 | 270 | 2.0 | 7.0 | 0.00 | 0.00 | 0.00 | 42 | 1009.1 |
| 20260504180207 | 62 | 281 | 6.0 | 7.0 | 0.00 | 0.00 | 0.00 | 41 | 1009.2 |
| 20260504175704 | 62 | 251 | 3.0 | 5.0 | 0.00 | 0.00 | 0.00 | 39 | 1009.1 |
| 20260504175201 | 62 | 310 | 3.0 | 8.0 | 0.00 | 0.00 | 0.00 | 43 | 1009.1 |
| 20260504174659 | 61 | 201 | 3.0 | 8.0 | 0.00 | 0.00 | 0.00 | 42 | 1009.2 |
| 20260504174156 | 61 | 239 | 7.0 | 9.0 | 0.00 | 0.00 | 0.00 | 42 | 1009.4 |
| 20260504173653 | 62 | 247 | 6.0 | 8.0 | 0.00 | 0.00 | 0.00 | 41 | 1009.4 |
| 20260504173150 | 62 | 252 | 3.0 | 6.0 | 0.00 | 0.00 | 0.00 | 41 | 1009.3 |
| 20260504172647 | 62 | 243 | 4.0 | 8.0 | 0.00 | 0.00 | 0.00 | 38 | 1009.3 |
| 20260504172143 | 63 | 205 | 5.0 | 5.0 | 0.00 | 0.00 | 0.00 | 38 | 1009.2 |
| 20260504171639 | 63 | 0 | 3.0 | 4.0 | 0.00 | 0.00 | 0.00 | 39 | 1009.3 |
| 20260504171137 | 60 | 342 | 1.0 | 4.0 | 0.00 | 0.00 | 0.00 | 38 | 1009.2 |
| 20260504170633 | 61 | 7 | 4.0 | 5.0 | 0.00 | 0.00 | 0.00 | 39 | 1009.3 |
| 20260504170131 | 61 | 270 | 0.0 | 2.0 | 0.00 | 0.00 | 0.00 | 40 | 1009.3 |
| 20260504151016 | 56 | 0 | 1.0 | 5.0 | 0.00 | 0.00 | 0.00 | 46 | 1009.3 |
| 20260504150513 | 55 | 34 | 2.0 | 6.0 | 0.00 | 0.00 | 0.00 | 48 | 1009.2 |
| 20260504140939 | 50 | 26 | 3.0 | 6.0 | 0.00 | 0.00 | 0.00 | 54 | 1009.2 |
| 20260504140435 | 50 | 31 | 3.0 | 4.0 | 0.00 | 0.00 | 0.00 | 57 | 1009.2 |
| 20260504130400 | 43 | 127 | 0.0 | 4.0 | 0.00 | 0.00 | 0.00 | 60 | 1008.8 |
| 20260504110248 | 44 | 79 | 7.0 | 8.0 | 0.00 | 0.00 | 0.00 | 61 | 1009.2 |
| 20260504100205 | 45 | 66 | 0.0 | 7.0 | 0.00 | 0.00 | 0.00 | 60 | 1009.2 |
| 20260504090122 | 47 | 86 | 8.0 | 11.0 | 0.00 | 0.00 | 0.00 | 57 | 1009.3 |
| 20260504081552 | 46 | 95 | 4.0 | 6.0 | 0.00 | 0.00 | 0.00 | 56 | 1009.8 |
| 20260504081048 | 47 | 135 | 4.0 | 7.0 | 0.00 | 0.00 | 0.00 | 54 | 1009.9 |
| 20260504080545 | 48 | 107 | 3.0 | 9.0 | 0.00 | 0.00 | 0.00 | 51 | 1010.0 |
| 20260504050357 | 48 | 88 | 5.0 | 9.0 | 0.00 | 0.00 | 0.00 | 51 | 1011.1 |
| 20260504045855 | 48 | 99 | 3.0 | 7.0 | 0.00 | 0.00 | 0.00 | 52 | 1011.0 |
| 20260504045349 | 48 | 84 | 6.0 | 9.0 | 0.00 | 0.00 | 0.00 | 53 | 1010.9 |
| 20260504044847 | 47 | 82 | 4.0 | 11.0 | 0.00 | 0.00 | 0.00 | 53 | 1011.1 |
| 20260504044344 | 48 | 50 | 5.0 | 11.0 | 0.00 | 0.00 | 0.00 | 52 | 1011.0 |
| 20260504043841 | 47 | 96 | 8.0 | 11.0 | 0.00 | 0.00 | 0.00 | 52 | 1011.1 |
| 20260504043338 | 48 | 63 | 2.0 | 9.0 | 0.00 | 0.00 | 0.00 | 51 | 1011.1 |
| 20260504042835 | 48 | 254 | 2.0 | 6.0 | 0.00 | 0.00 | 0.00 | 51 | 1011.4 |
| 20260504042332 | 48 | 25 | 3.0 | 10.0 | 0.00 | 0.00 | 0.00 | 52 | 1011.3 |
| 20260504041828 | 48 | 90 | 3.0 | 7.0 | 0.00 | 0.00 | 0.00 | 52 | 1011.3 |
| 20260504041324 | 48 | 81 | 4.0 | 10.0 | 0.00 | 0.00 | 0.00 | 50 | 1011.3 |
| 20260504040820 | 48 | 86 | 3.0 | 8.0 | 0.00 | 0.00 | 0.00 | 51 | 1011.3 |
| 20260504040318 | 48 | 15 | 3.0 | 9.0 | 0.00 | 0.00 | 0.00 | 51 | 1011.3 |
| 20260504035814 | 49 | 0 | 4.0 | 13.0 | 0.00 | 0.00 | 0.00 | 50 | 1011.1 |
| 20260504035312 | 49 | 277 | 1.0 | 7.0 | 0.00 | 0.00 | 0.00 | 51 | 1011.3 |
| 20260504034809 | 49 | 116 | 5.0 | 8.0 | 0.00 | 0.00 | 0.00 | 51 | 1011.3 |
| 20260504034306 | 48 | 84 | 5.0 | 9.0 | 0.00 | 0.00 | 0.00 | 51 | 1011.3 |
| 20260504033803 | 49 | 87 | 9.0 | 9.0 | 0.00 | 0.00 | 0.00 | 51 | 1011.3 |
| 20260504033301 | 49 | 66 | 6.0 | 11.0 | 0.00 | 0.00 | 0.00 | 50 | 1011.3 |
| 20260504032757 | 50 | 95 | 10.0 | 10.0 | 0.00 | 0.00 | 0.00 | 49 | 1011.1 |
| 20260504032255 | 50 | 99 | 5.0 | 12.0 | 0.00 | 0.00 | 0.00 | 49 | 1011.1 |
| 20260504031751 | 50 | 69 | 3.0 | 9.0 | 0.00 | 0.00 | 0.00 | 50 | 1011.1 |
| 20260504031249 | 50 | 97 | 4.0 | 9.0 | 0.00 | 0.00 | 0.00 | 49 | 1011.1 |
| 20260504030745 | 50 | 81 | 5.0 | 9.0 | 0.00 | 0.00 | 0.00 | 50 | 1011.3 |
| 20260504030242 | 50 | 49 | 3.0 | 11.0 | 0.00 | 0.00 | 0.00 | 49 | 1011.1 |
| 20260504025738 | 51 | 97 | 5.0 | 9.0 | 0.00 | 0.00 | 0.00 | 48 | 1011.3 |
| 20260504025236 | 50 | 260 | 0.0 | 6.0 | 0.00 | 0.00 | 0.00 | 48 | 1011.1 |
| 20260504024732 | 50 | 81 | 0.0 | 7.0 | 0.00 | 0.00 | 0.00 | 50 | 1011.0 |
| 20260504024228 | 50 | 221 | 1.0 | 4.0 | 0.00 | 0.00 | 0.00 | 51 | 1011.0 |
| 20260504023726 | 50 | 77 | 0.0 | 5.0 | 0.00 | 0.00 | 0.00 | 53 | 1011.1 |
| 20260504023221 | 53 | 81 | 0.0 | 5.0 | 0.00 | 0.00 | 0.00 | 47 | 1011.3 |
| 20260504022717 | 54 | 98 | 3.0 | 4.0 | 0.00 | 0.00 | 0.00 | 44 | 1011.0 |